Starlink 32452

operational
NORAD ID: 61961 Int'l Des: 2024-210 Owner: SPXS Country: US Constellation: starlink
LEOCIRCULAR

Starlink 32452について

説明を読み込み中...

リアルタイム位置

3D地球を読み込み中...

次回通過

高度履歴

Altitude vs Time

uPlot chart will show altitude changes over time

軌道要素

1 61961U 24210C 25258.20374130 .00045151 00000-0 16385-2 0 9995
2 61961 43.0038 83.7871 0000055 255.1416 104.9430 15.27615165 48159
Epoch: Sep 15, 2025 • Age: 15 hours

現在のステータス

高度 484.4 km
速度 7.63 km/s
衛星直下点 35.77°N, 77.97°W
打ち上げ日 Nov 14, 2024
運用期間 0.8 years
タイプ internet

技術仕様

分類 Payload
質量 730.00 kg
乾燥質量 700.00 kg
総質量 730.00 kg
長さ 0.30 m
直径 4.10 m
スパン 29.00 m
形状 Box + pan
製造者 SPXS
バスタイプ Starlink V2M
フェーズステータス In Orbit
所有者/国 SPXS/US

大規模コンステレーション

Loading constellations...